AAL358 KCLT-KSNA

Flight info

Callsign AAL358
Flight time N/A
Altitude 30000
Route BOBZY5 BNA HODJS MMB MIRME FTI KA33U ZUN HIMDU DSNEE6
Aircraft B38M/M-SDE1FGHILORVWXY/HB1

Departure

Time 2026-05-05 00:07
Airport Charlotte Douglas International Airport (KCLT)

Arrival

Time N/A
Airport John Wayne Orange County International Airport (KSNA)
Time Latitude Longitude Altitude Speed Heading
2026-05-04 23:47 35.21916 -80.94578 735 ft 0 kts 102°
2026-05-04 23:57 35.21916 -80.94579 735 ft 1 kts 102°
2026-05-04 23:57 35.21919 -80.94608 718 ft 4 kts 94°
2026-05-04 23:58 35.21920 -80.94641 732 ft 4 kts 84°
2026-05-04 23:58 35.21914 -80.94673 735 ft 4 kts 71°
2026-05-04 23:58 35.21903 -80.94703 733 ft 4 kts 56°
2026-05-04 23:58 35.21886 -80.94727 735 ft 4 kts 39°
2026-05-04 23:59 35.21864 -80.94744 734 ft 4 kts 19°
2026-05-04 23:59 35.21841 -80.94749 735 ft 1 kts 356°
2026-05-04 23:59 35.21840 -80.94749 735 ft 2 kts 356°
2026-05-05 00:01 35.21845 -80.94749 735 ft 0 kts 354°
2026-05-05 00:01 35.21847 -80.94750 735 ft 1 kts 353°
2026-05-05 00:01 35.21858 -80.94753 734 ft 2 kts 339°
2026-05-05 00:01 35.21871 -80.94768 735 ft 3 kts 305°
2026-05-05 00:02 35.21879 -80.94825 735 ft 11 kts 265°
2026-05-05 00:02 35.21871 -80.94926 735 ft 12 kts 265°
2026-05-05 00:02 35.21872 -80.95025 736 ft 11 kts 301°
2026-05-05 00:02 35.21944 -80.95051 736 ft 12 kts 355°
2026-05-05 00:03 35.22031 -80.95057 736 ft 14 kts 356°
2026-05-05 00:03 35.22153 -80.95068 736 ft 21 kts 356°
2026-05-05 00:03 35.22295 -80.95080 736 ft 21 kts 356°
2026-05-05 00:03 35.22425 -80.95091 736 ft 19 kts 356°
2026-05-05 00:04 35.22536 -80.95101 736 ft 10 kts 356°
2026-05-05 00:04 35.22591 -80.95105 736 ft 3 kts 356°
2026-05-05 00:04 35.22592 -80.95105 736 ft 0 kts 356°
2026-05-05 00:04 35.22606 -80.95106 736 ft 6 kts 356°
2026-05-05 00:05 35.22682 -80.95112 736 ft 13 kts 356°
2026-05-05 00:05 35.22734 -80.95164 736 ft 6 kts 276°
2026-05-05 00:05 35.22733 -80.95184 737 ft 0 kts 266°
2026-05-05 00:06 35.22731 -80.95219 739 ft 8 kts 265°
2026-05-05 00:06 35.22716 -80.95296 743 ft 9 kts 234°
2026-05-05 00:06 35.22655 -80.95312 741 ft 11 kts 175°
2026-05-05 00:06 35.22431 -80.95293 742 ft 65 kts 177°
2026-05-05 00:07 35.21741 -80.95233 742 ft 132 kts 176°
2026-05-05 00:07 35.20633 -80.95134 827 ft 179 kts 175°
2026-05-05 00:07 35.19359 -80.95000 1583 ft 187 kts 176°
2026-05-05 00:07 35.18050 -80.94846 2443 ft 192 kts 177°
2026-05-05 00:08 35.16673 -80.94960 2867 ft 212 kts 205°
2026-05-05 00:08 35.15501 -80.96217 3281 ft 235 kts 236°
2026-05-05 00:08 35.14825 -80.98037 4224 ft 244 kts 253°
2026-05-05 00:08 35.14780 -81.00188 4870 ft 265 kts 278°
2026-05-05 00:09 35.15144 -81.02390 5872 ft 264 kts 277°
2026-05-05 00:09 35.15456 -81.04608 6812 ft 266 kts 278°
2026-05-05 00:09 35.15772 -81.06844 7704 ft 268 kts 278°
2026-05-05 00:09 35.16088 -81.09073 8559 ft 271 kts 278°
2026-05-05 00:10 35.16416 -81.11385 9469 ft 273 kts 278°
2026-05-05 00:10 35.16738 -81.13656 10255 ft 278 kts 279°
2026-05-05 00:10 35.17076 -81.16056 10672 ft 296 kts 279°
2026-05-05 00:10 35.17435 -81.18621 10985 ft 316 kts 279°
2026-05-05 00:11 35.17817 -81.21356 11259 ft 336 kts 279°
2026-05-05 00:11 35.18225 -81.24249 11573 ft 352 kts 279°
2026-05-05 00:11 35.18648 -81.27231 12078 ft 360 kts 279°
2026-05-05 00:11 35.19079 -81.30246 12880 ft 361 kts 279°
2026-05-05 00:12 35.19445 -81.33291 13535 ft 365 kts 272°
2026-05-05 00:12 35.19376 -81.36397 14170 ft 367 kts 269°
2026-05-05 00:12 35.19293 -81.39539 14693 ft 372 kts 269°
2026-05-05 00:12 35.19207 -81.42713 15272 ft 375 kts 269°
2026-05-05 00:13 35.19118 -81.45906 15848 ft 378 kts 269°
2026-05-05 00:13 35.19027 -81.49135 16412 ft 381 kts 269°
2026-05-05 00:13 35.18934 -81.52385 16961 ft 384 kts 269°
2026-05-05 00:13 35.18824 -81.55663 17510 ft 387 kts 269°
2026-05-05 00:14 35.18711 -81.58961 18098 ft 390 kts 269°
2026-05-05 00:14 35.18598 -81.62289 18592 ft 393 kts 269°
2026-05-05 00:14 35.18550 -81.64551 18918 ft 395 kts 270°
2026-05-05 00:14 35.18489 -81.67910 19407 ft 397 kts 269°
2026-05-05 00:15 35.18420 -81.71289 19906 ft 398 kts 269°
2026-05-05 00:15 35.18350 -81.74687 20372 ft 401 kts 269°
2026-05-05 00:15 35.18278 -81.78100 20837 ft 403 kts 269°
2026-05-05 00:15 35.18205 -81.81535 21291 ft 405 kts 269°
2026-05-05 00:16 35.18131 -81.84987 21738 ft 408 kts 269°
2026-05-05 00:16 35.18055 -81.88446 22175 ft 410 kts 269°
2026-05-05 00:16 35.17978 -81.91941 22629 ft 412 kts 269°
2026-05-05 00:16 35.17899 -81.95449 23063 ft 414 kts 269°
2026-05-05 00:17 35.17819 -81.98980 23503 ft 417 kts 269°
2026-05-05 00:17 35.17737 -82.02530 23866 ft 419 kts 269°
2026-05-05 00:17 35.17655 -82.06050 24213 ft 421 kts 269°
2026-05-05 00:17 35.17570 -82.09631 24572 ft 423 kts 269°
2026-05-05 00:18 35.17484 -82.13234 24919 ft 425 kts 269°
2026-05-05 00:18 35.17396 -82.16888 25272 ft 427 kts 269°
2026-05-05 00:18 35.17398 -82.20512 25594 ft 428 kts 277°
2026-05-05 00:18 35.18066 -82.24058 25945 ft 429 kts 285°
2026-05-05 00:19 35.18861 -82.27597 26212 ft 433 kts 285°
2026-05-05 00:19 35.19671 -82.31143 26543 ft 434 kts 285°
2026-05-05 00:19 35.20487 -82.34650 26868 ft 436 kts 285°
2026-05-05 00:19 35.21325 -82.38222 27183 ft 438 kts 285°
2026-05-05 00:20 35.22169 -82.41808 27503 ft 439 kts 285°
2026-05-05 00:20 35.23016 -82.45410 27772 ft 442 kts 285°
2026-05-05 00:20 35.23865 -82.49020 28192 ft 441 kts 285°
2026-05-05 00:20 35.24710 -82.52621 28647 ft 440 kts 285°
2026-05-05 00:21 35.25552 -82.56213 29083 ft 439 kts 285°
2026-05-05 00:21 35.26389 -82.59794 29509 ft 437 kts 285°
2026-05-05 00:21 35.27224 -82.63367 29948 ft 436 kts 285°
2026-05-05 00:21 35.28054 -82.66925 30335 ft 435 kts 285°
2026-05-05 00:22 35.28881 -82.70478 30720 ft 432 kts 285°
2026-05-05 00:22 35.29702 -82.74006 31119 ft 430 kts 285°
2026-05-05 00:22 35.30518 -82.77517 31498 ft 428 kts 285°
2026-05-05 00:22 35.31329 -82.81018 31869 ft 426 kts 284°
2026-05-05 00:23 35.32137 -82.84502 32223 ft 424 kts 284°
2026-05-05 00:23 35.32939 -82.87968 32574 ft 423 kts 284°
2026-05-05 00:23 35.33737 -82.91425 32926 ft 421 kts 284°
2026-05-05 00:23 35.34533 -82.94877 33259 ft 420 kts 284°
2026-05-05 00:24 35.35323 -82.98309 33575 ft 418 kts 284°
2026-05-05 00:24 35.36110 -83.01730 33937 ft 417 kts 284°
2026-05-05 00:24 35.36896 -83.05155 34030 ft 417 kts 284°
2026-05-05 00:25 35.38452 -83.11940 34027 ft 413 kts 284°
2026-05-05 00:25 35.40006 -83.18741 33986 ft 415 kts 284°
2026-05-05 00:26 35.41560 -83.25569 34019 ft 417 kts 284°
2026-05-05 00:26 35.43109 -83.32417 34006 ft 416 kts 284°
2026-05-05 00:27 35.44650 -83.39242 34007 ft 416 kts 284°
2026-05-05 00:27 35.46181 -83.46044 34003 ft 416 kts 284°
2026-05-05 00:28 35.47717 -83.52888 34000 ft 416 kts 284°
2026-05-05 00:28 35.49252 -83.59745 33983 ft 417 kts 283°
2026-05-05 00:29 35.50780 -83.66597 33998 ft 417 kts 283°
2026-05-05 00:29 35.52307 -83.73458 33993 ft 416 kts 283°
2026-05-05 00:30 35.53829 -83.80320 33970 ft 416 kts 283°
2026-05-05 00:30 35.55347 -83.87179 33971 ft 416 kts 283°
2026-05-05 00:31 35.56860 -83.94039 33970 ft 416 kts 283°
2026-05-05 00:31 35.58369 -84.00909 33969 ft 418 kts 283°
2026-05-05 00:32 35.59880 -84.07797 33970 ft 418 kts 283°
2026-05-05 00:32 35.61386 -84.14687 33982 ft 417 kts 283°